Flag for Switzerland Weather past 2 weeks in Langenthal, Bern, Switzerland

Now
42 °F

Quite cool.


Feels Like: 38 °F
Forecast: 32 / 44 °F
Wind: 7 mph from West

Location: Wynau

Current Time: Dec 20, 2014 at 6:42:24 PM

Latest Report: Dec 20, 2014 at 6:00 PM


Visibility: N/A

Pressure: 30.42 "Hg

Humidity: 58%

Dew point: 29 °F

Location of LangenthalLocation

Historic Weather in Langenthal — Graph

°F

Langenthal temperature yesterday

Maximum temperature yesterday: 55 °F (at 2:00 PM)
Minimum temperature yesterday: 40 °F (at 5:00 AM)
Average temperature yesterday: 48 °F

Past Weeks' High & Low Weather Summary

 TemperatureHumidityPressure
High55 °F (Dec 19, 2:00 PM)100% (Dec 10, 2:00 AM)30.47 "Hg (Dec 10, 2:00 AM)
Low28 °F (Dec 10, 2:00 AM)59% (Dec 12, 4:00 PM)29.88 "Hg (Dec 12, 4:00 PM)
Average40 °F89%30.15 "Hg
* Reported Dec 5 5:00 PM — Dec 20 5:00 PM, Langenthal, Weather by CustomWeather, © 2014

Note: Actual official high and low records may vary slightly from our data, if they occured in-between our weather recording intervals... More about our weather records

Advertising

Langenthal weather history for previous 24 hours

 ConditionsComfort  
Time TempWeatherWind HumidityBarometerVisibility
5:00 PM
Dec 20
43 °FQuite cool.6 mph61%30.38 "HgN/A
4:00 PM44 °FQuite cool.6 mph65%30.36 "HgN/A
3:00 PM45 °FCool.6 mph69%30.34 "HgN/A
2:00 PM50 °FCool.9 mph62%30.33 "HgN/A
1:00 PM49 °FCool.5 mph70%30.33 "HgN/A
12:00 PM46 °FCool.5 mph71%30.39 "HgN/A
11:00 AM45 °FQuite cool.2 mph85%30.40 "HgN/A
10:00 AM42 °FQuite cool.No wind98%30.40 "HgN/A
9:00 AM43 °FQuite cool.2 mph97%30.37 "HgN/A
8:00 AM46 °FCool.2 mph90%30.36 "HgN/A
7:00 AM47 °FCool.3 mph95%30.34 "HgN/A
6:00 AM48 °FCool.7 mph92%30.34 "HgN/A
5:00 AM46 °FCool.2 mph97%30.33 "HgN/A
4:00 AM46 °FCool.3 mph96%30.32 "HgN/A
3:00 AM48 °FCool.9 mph93%30.31 "HgN/A
2:00 AM48 °FCool.7 mph95%30.31 "HgN/A
1:00 AM47 °FCool.7 mph97%30.30 "HgN/A
12:00 AM48 °FCool.9 mph96%30.29 "HgN/A
11:00 PM
Dec 19
48 °FCool.8 mph94%30.28 "HgN/A
10:00 PM49 °FCool.12 mph87%30.26 "HgN/A
9:00 PM49 °FCool.8 mph85%30.23 "HgN/A
8:00 PM49 °FCool.7 mph82%30.22 "HgN/A
7:00 PM52 °FCool.13 mph69%30.19 "HgN/A
6:00 PM52 °FCool.10 mph74%30.17 "HgN/A
Weather by CustomWeather, © 2014

See weather overviewHow to use our weather pages